User: anonymous   Login
Location: Stull Observatory
(42.2506°N, 77.7903°W)
Time: 11:02:59
(UTC-05:00)
Language:

Abrixas rocket - Orbit

View from above orbital plane
View from above orbital plane
View from above satellite
View from above satellite

Ground track
Ground track

The orbit data is extracted from the following two-line orbital elements,

1 25723U 99022C   15062.98048242  .00016609  00000-0  44833-3 0  9999
2 25723 048.4204 258.2937 0013045 358.3063 155.7905 15.37712370877033
Epoch (UTC): 03 March 2015 23:31:53
Eccentricity: 0.0013045
inclination: 48.4204°
perigee height: 444 km
apogee height: 462 km
right ascension of ascending node: 258.2937°
argument of perigee: 358.3063°
revolutions per day: 15.37712370
mean anomaly at epoch: 155.7905°
orbit number at epoch: 87703

The dashed part of the orbit path shows where the satellite is in the earth's shadow,  

DLR